�������l�o���
Date,Time,MP-1(��Sv/h),MP-2(��Sv/h),MP-3(��Sv/h),MP-4(��Sv/h),MP-5(��Sv/h),MP-6(��Sv/h),MP-7(��Sv/h),MP-8(��Sv/h),����,����(m/s),���J
2018/10/17,00:00,0.785,1.182,0.833,1.479,1.068,0.462,0.809,0.767,�k��,4.8,��
2018/10/17,00:10,0.783,1.185,0.829,1.480,1.067,0.461,0.810,0.766,�k��,5.3,��
2018/10/17,00:20,0.784,1.182,0.831,1.480,1.067,0.461,0.810,0.766,�k��,5.0,��
2018/10/17,00:30,0.785,1.183,0.833,1.480,1.068,0.464,0.809,0.766,�k��,5.4,��
2018/10/17,00:40,0.783,1.185,0.832,1.481,1.069,0.464,0.809,0.767,�k��,5.1,��
2018/10/17,00:50,0.784,1.182,0.831,1.480,1.067,0.461,0.807,0.765,�k��,5.7,��
2018/10/17,01:00,0.783,1.183,0.833,1.480,1.067,0.461,0.808,0.767,�k��,6.2,��
2018/10/17,01:10,0.785,1.183,0.833,1.480,1.068,0.462,0.810,0.766,�k��,5.7,��
2018/10/17,01:20,0.781,1.183,0.833,1.482,1.067,0.461,0.808,0.766,�k��,5.7,��
2018/10/17,01:30,0.783,1.183,0.831,1.482,1.068,0.462,0.806,0.767,�k�k��,5.4,��
2018/10/17,01:40,0.785,1.184,0.830,1.483,1.065,0.463,0.809,0.767,�k�k��,5.7,��
2018/10/17,01:50,0.781,1.181,0.832,1.481,1.065,0.463,0.808,0.765,�k�k��,6.9,��
2018/10/17,02:00,0.782,1.181,0.832,1.482,1.066,0.461,0.806,0.767,�k�k��,6.9,��
2018/10/17,02:10,0.783,1.182,0.833,1.480,1.067,0.461,0.810,0.766,�k�k��,7.4,��
2018/10/17,02:20,0.782,1.183,0.831,1.482,1.069,0.461,0.808,0.768,�k�k��,7.1,��
2018/10/17,02:30,0.782,1.182,0.832,1.480,1.067,0.465,0.808,0.765,�k�k��,6.5,��
2018/10/17,02:40,0.784,1.183,0.833,1.481,1.067,0.462,0.808,0.766,�k�k��,7.2,��
2018/10/17,02:50,0.784,1.182,0.831,1.482,1.068,0.461,0.808,0.767,�k�k��,7.1,��
2018/10/17,03:00,0.783,1.184,0.833,1.481,1.068,0.464,0.810,0.767,�k�k��,7.3,��
2018/10/17,03:10,0.782,1.182,0.831,1.480,1.067,0.463,0.808,0.767,�k�k��,6.8,��
2018/10/17,03:20,0.784,1.184,0.832,1.482,1.068,0.462,0.809,0.765,�k�k��,7.6,��
2018/10/17,03:30,0.783,1.183,0.833,1.482,1.066,0.463,0.808,0.766,�k�k��,7.5,��
2018/10/17,03:40,0.783,1.181,0.833,1.481,1.067,0.461,0.811,0.766,�k�k��,7.5,��
2018/10/17,03:50,0.784,1.182,0.830,1.480,1.067,0.463,0.807,0.766,�k�k��,7.8,��
2018/10/17,04:00,0.782,1.185,0.833,1.482,1.066,0.464,0.805,0.768,�k�k��,8.1,��
2018/10/17,04:10,0.785,1.182,0.832,1.480,1.065,0.462,0.808,0.767,�k�k��,7.9,��
2018/10/17,04:20,0.782,1.181,0.831,1.481,1.069,0.463,0.807,0.766,�k�k��,7.6,��
2018/10/17,04:30,0.784,1.183,0.832,1.481,1.066,0.461,0.807,0.768,�k�k��,7.9,��
2018/10/17,04:40,0.786,1.182,0.835,1.481,1.066,0.464,0.806,0.767,�k�k��,8.1,��
2018/10/17,04:50,0.782,1.182,0.832,1.479,1.066,0.463,0.808,0.765,�k�k��,7.6,�L
2018/10/17,05:00,0.786,1.183,0.833,1.480,1.066,0.463,0.809,0.767,�k��,6.8,�L
2018/10/17,05:10,0.783,1.183,0.833,1.483,1.066,0.461,0.807,0.766,�k�k��,7.4,��
2018/10/17,05:20,0.783,1.184,0.833,1.484,1.068,0.463,0.809,0.765,�k�k��,7.8,��
2018/10/17,05:30,0.783,1.184,0.833,1.484,1.065,0.463,0.808,0.767,�k�k��,7.2,��
2018/10/17,05:40,0.785,1.182,0.831,1.481,1.068,0.461,0.808,0.767,�k�k��,7.9,��
2018/10/17,05:50,0.784,1.182,0.834,1.480,1.066,0.461,0.808,0.767,�k�k��,8.4,��
2018/10/17,06:00,0.785,1.183,0.832,1.481,1.068,0.461,0.806,0.766,�k�k��,9.0,��
2018/10/17,06:10,0.783,1.183,0.832,1.480,1.070,0.462,0.807,0.767,�k�k��,9.2,��
2018/10/17,06:20,0.784,1.183,0.830,1.482,1.067,0.461,0.806,0.767,�k�k��,8.4,��
2018/10/17,06:30,0.784,1.182,0.830,1.479,1.065,0.461,0.807,0.766,�k�k��,9.0,��
2018/10/17,06:40,0.784,1.183,0.834,1.483,1.065,0.462,0.808,0.767,�k�k��,8.9,��
2018/10/17,06:50,0.785,1.182,0.830,1.483,1.065,0.463,0.805,0.767,�k�k��,8.5,��
2018/10/17,07:00,0.783,1.182,0.832,1.483,1.066,0.461,0.810,0.767,�k�k��,8.2,��
2018/10/17,07:10,0.786,1.184,0.831,1.482,1.067,0.462,0.805,0.767,�k�k��,7.0,��
2018/10/17,07:20,0.782,1.183,0.831,1.479,1.069,0.462,0.807,0.766,�k�k��,8.3,��
2018/10/17,07:30,0.785,1.183,0.832,1.481,1.067,0.462,0.807,0.768,�k�k��,7.5,��
2018/10/17,07:40,0.784,1.183,0.832,1.479,1.069,0.462,0.807,0.766,�k�k��,7.2,��
2018/10/17,07:50,0.785,1.185,0.831,1.483,1.067,0.461,0.806,0.768,�k�k��,7.7,��
2018/10/17,08:00,0.783,1.186,0.832,1.478,1.066,0.461,0.806,0.765,�k�k��,7.6,��
2018/10/17,08:10,0.784,1.185,0.831,1.481,1.067,0.461,0.806,0.767,�k�k��,7.7,��
2018/10/17,08:20,0.785,1.183,0.833,1.482,1.070,0.462,0.808,0.767,�k�k��,5.6,��
2018/10/17,08:30,0.785,1.183,0.831,1.482,1.066,0.461,0.806,0.769,�k�k��,6.6,��
2018/10/17,08:40,0.786,1.180,0.833,1.480,1.067,0.461,0.808,0.767,�k�k��,6.9,��
2018/10/17,08:50,0.785,1.180,0.832,1.482,1.069,0.460,0.808,0.765,�k�k��,8.2,��
2018/10/17,09:00,0.786,1.182,0.833,1.485,1.068,0.459,0.808,0.765,�k�k��,6.8,��
2018/10/17,09:10,0.785,1.179,0.832,1.483,1.069,0.460,0.809,0.766,�k�k��,7.1,��
2018/10/17,09:20,0.784,1.178,0.828,1.483,1.064,0.459,0.809,0.765,�k�k��,7.0,��
2018/10/17,09:30,0.781,1.181,0.827,1.484,1.068,0.458,0.808,0.766,�k�k��,6.1,��
2018/10/17,09:40,0.784,1.176,0.831,1.484,1.067,0.459,0.808,0.764,�k�k��,8.3,��
2018/10/17,09:50,0.784,1.178,0.831,1.480,1.067,0.459,0.808,0.763,�k�k��,8.3,��
2018/10/17,10:00,0.781,1.176,0.829,1.481,1.067,0.458,0.809,0.765,�k�k��,9.8,��
2018/10/17,10:10,0.784,1.176,0.829,1.482,1.067,0.458,0.809,0.765,�k�k��,7.9,��
2018/10/17,10:20,0.785,1.177,0.832,1.484,1.065,0.458,0.809,0.764,�k�k��,7.8,��
2018/10/17,10:30,0.783,1.180,0.831,1.484,1.066,0.458,0.808,0.761,�k�k��,6.7,��
2018/10/17,10:40,0.781,1.178,0.831,1.485,1.067,0.459,0.808,0.763,�k�k��,7.3,�L
2018/10/17,10:50,0.784,1.179,0.831,1.482,1.068,0.459,0.808,0.764,�k�k��,7.1,��
2018/10/17,11:00,0.785,1.178,0.832,1.483,1.068,0.459,0.808,0.766,�k�k��,7.6,�L
2018/10/17,11:10,0.785,1.180,0.831,1.486,1.068,0.459,0.810,0.766,�k�k��,8.0,�L
2018/10/17,11:20,0.786,1.180,0.832,1.484,1.068,0.460,0.810,0.765,�k�k��,7.2,��
2018/10/17,11:30,0.786,1.183,0.832,1.484,1.071,0.460,0.809,0.765,�k��,7.0,��
2018/10/17,11:40,0.785,1.184,0.833,1.484,1.069,0.460,0.809,0.766,�k��,7.1,�L
2018/10/17,11:50,0.784,1.185,0.833,1.483,1.069,0.460,0.809,0.766,�k��,7.3,�L
2018/10/17,12:00,0.787,1.184,0.833,1.485,1.070,0.461,0.808,0.765,�k��,7.6,�L
2018/10/17,12:10,0.786,1.189,0.835,1.486,1.070,0.460,0.809,0.765,�k�k��,8.3,�L
2018/10/17,12:20,0.785,1.182,0.834,1.483,1.071,0.459,0.807,0.765,�k�k��,7.5,�L
2018/10/17,12:30,0.786,1.182,0.832,1.483,1.067,0.459,0.809,0.763,�k��,7.8,�L
2018/10/17,12:40,0.786,1.180,0.834,1.481,1.071,0.458,0.809,0.764,�k��,7.0,��
2018/10/17,12:50,0.786,1.181,0.832,1.487,1.070,0.460,0.809,0.765,�k�k��,7.2,��
2018/10/17,13:00,0.786,1.179,0.833,1.483,1.069,0.459,0.807,0.765,�k��,5.7,��
2018/10/17,13:10,0.786,1.181,0.832,1.487,1.071,0.461,0.808,0.767,�k�k��,5.9,��
2018/10/17,13:20,0.788,1.181,0.833,1.481,1.072,0.461,0.808,0.766,�k�k��,6.2,��
2018/10/17,13:30,0.785,1.183,0.832,1.486,1.072,0.459,0.808,0.766,�k�k��,5.2,��
2018/10/17,13:40,0.788,1.180,0.835,1.486,1.071,0.460,0.807,0.767,�k�k��,5.9,��
2018/10/17,13:50,0.786,1.181,0.835,1.486,1.070,0.460,0.807,0.765,�k��,5.8,��
2018/10/17,14:00,0.788,1.178,0.833,1.486,1.066,0.460,0.807,0.767,�k��,5.6,��
2018/10/17,14:10,0.786,1.176,0.833,1.487,1.069,0.458,0.807,0.765,�k�k��,5.4,��
2018/10/17,14:20,0.787,1.181,0.834,1.489,1.071,0.460,0.809,0.765,�k�k��,5.0,��
2018/10/17,14:30,0.788,1.178,0.833,1.485,1.070,0.461,0.810,0.764,�k�k��,4.5,��
2018/10/17,14:40,0.786,1.178,0.833,1.484,1.069,0.460,0.806,0.764,�k�k��,3.9,��
2018/10/17,14:50,0.787,1.180,0.834,1.485,1.067,0.462,0.808,0.766,�k�k��,4.4,��
2018/10/17,15:00,0.784,1.179,0.829,1.484,1.067,0.460,0.809,0.765,�k�k��,3.8,��
2018/10/17,15:10,0.785,1.180,0.830,1.488,1.068,0.460,0.810,0.765,�k�k��,3.8,��
2018/10/17,15:20,0.785,1.182,0.832,1.485,1.068,0.461,0.808,0.766,�k�k��,4.5,��
2018/10/17,15:30,0.784,1.182,0.831,1.483,1.069,0.460,0.809,0.766,�k�k��,5.0,��
2018/10/17,15:40,0.786,1.183,0.832,1.485,1.067,0.460,0.809,0.764,�k�k��,4.5,��
2018/10/17,15:50,0.785,1.184,0.834,1.487,1.067,0.460,0.809,0.765,�k�k��,5.0,��
2018/10/17,16:00,0.784,1.185,0.835,1.490,1.070,0.462,0.809,0.766,�k�k��,5.5,��
2018/10/17,16:10,0.787,1.184,0.835,1.487,1.069,0.460,0.810,0.766,�k�k��,5.1,��
2018/10/17,16:20,0.785,1.185,0.833,1.489,1.070,0.461,0.808,0.767,�k�k��,5.0,��
2018/10/17,16:30,0.786,1.187,0.835,1.486,1.070,0.460,0.808,0.768,�k�k��,5.8,��
2018/10/17,16:40,0.786,1.188,0.833,1.487,1.072,0.461,0.808,0.769,�k�k��,6.1,��
2018/10/17,16:50,0.787,1.189,0.833,1.486,1.069,0.461,0.807,0.768,�k�k��,6.1,��
2018/10/17,17:00,0.787,1.188,0.833,1.487,1.072,0.460,0.808,0.768,�k�k��,6.3,��
2018/10/17,17:10,0.787,1.187,0.834,1.487,1.070,0.461,0.808,0.767,�k�k��,5.7,��
2018/10/17,17:20,0.784,1.185,0.832,1.486,1.071,0.462,0.808,0.766,�k�k��,5.6,��
2018/10/17,17:30,0.783,1.185,0.834,1.487,1.071,0.461,0.810,0.767,�k�k��,5.3,��
2018/10/17,17:40,0.784,1.189,0.833,1.487,1.069,0.461,0.808,0.768,�k�k��,4.4,��
2018/10/17,17:50,0.785,1.188,0.834,1.486,1.071,0.462,0.808,0.765,�k�k��,4.7,��
2018/10/17,18:00,0.786,1.187,0.832,1.486,1.071,0.461,0.808,0.766,�k�k��,4.5,��
2018/10/17,18:10,0.784,1.186,0.833,1.488,1.070,0.461,0.809,0.766,�k�k��,4.8,��
2018/10/17,18:20,0.788,1.185,0.835,1.487,1.071,0.461,0.809,0.765,�k��,4.6,��
2018/10/17,18:30,0.784,1.184,0.833,1.487,1.070,0.461,0.810,0.765,�k��,4.4,��
2018/10/17,18:40,0.785,1.187,0.832,1.486,1.071,0.460,0.810,0.767,�k��,5.0,��
2018/10/17,18:50,0.785,1.186,0.835,1.488,1.069,0.461,0.809,0.768,�k��,5.1,��
2018/10/17,19:00,0.785,1.187,0.833,1.485,1.069,0.460,0.810,0.765,�k��,5.7,��
2018/10/17,19:10,0.786,1.184,0.832,1.488,1.067,0.460,0.810,0.765,�k��,5.0,��
2018/10/17,19:20,0.786,1.185,0.833,1.484,1.071,0.461,0.808,0.766,�k��,5.3,��
2018/10/17,19:30,0.784,1.187,0.832,1.488,1.067,0.460,0.808,0.765,�k��,5.6,��
2018/10/17,19:40,0.787,1.185,0.834,1.488,1.069,0.459,0.809,0.766,�k��,5.4,��
2018/10/17,19:50,0.785,1.186,0.834,1.487,1.070,0.459,0.809,0.765,�k��,4.8,��
2018/10/17,20:00,0.784,1.184,0.834,1.488,1.068,0.461,0.810,0.766,�k��,5.0,��
2018/10/17,20:10,0.783,1.186,0.832,1.487,1.069,0.461,0.810,0.766,�k��,4.8,��
2018/10/17,20:20,0.786,1.187,0.834,1.485,1.068,0.463,0.807,0.766,�k��,4.7,��
2018/10/17,20:30,0.785,1.186,0.832,1.487,1.068,0.461,0.809,0.767,�k��,5.2,��
2018/10/17,20:40,0.784,1.185,0.833,1.486,1.069,0.461,0.811,0.767,�k��,5.2,��
2018/10/17,20:50,0.785,1.183,0.833,1.486,1.069,0.459,0.808,0.765,�k��,4.9,��
2018/10/17,21:00,0.785,1.186,0.833,1.485,1.072,0.461,0.808,0.766,�k��,5.0,��
2018/10/17,21:10,0.784,1.182,0.833,1.485,1.069,0.459,0.808,0.766,�k��,4.6,��
2018/10/17,21:20,0.783,1.183,0.832,1.487,1.070,0.459,0.808,0.765,�k��,4.9,��
2018/10/17,21:30,0.786,1.186,0.832,1.486,1.069,0.461,0.808,0.766,�k��,5.5,��
2018/10/17,21:40,0.784,1.185,0.832,1.487,1.069,0.462,0.808,0.767,�k��,5.3,��
2018/10/17,21:50,0.786,1.187,0.834,1.485,1.068,0.461,0.809,0.767,�k��,5.1,��
2018/10/17,22:00,0.784,1.187,0.832,1.486,1.068,0.461,0.808,0.766,�k��,4.8,��
2018/10/17,22:10,0.784,1.185,0.833,1.485,1.069,0.459,0.809,0.766,�k��,4.8,��
2018/10/17,22:20,0.785,1.187,0.833,1.488,1.068,0.461,0.810,0.766,�k��,4.7,��
2018/10/17,22:30,0.782,1.182,0.831,1.488,1.071,0.460,0.809,0.766,�k��,4.4,��
2018/10/17,22:40,0.785,1.185,0.834,1.487,1.068,0.461,0.808,0.766,�k��,5.2,��
2018/10/17,22:50,0.784,1.182,0.832,1.486,1.069,0.462,0.809,0.767,�k��,4.6,��
2018/10/17,23:00,0.785,1.182,0.831,1.486,1.071,0.461,0.808,0.766,�k��,5.2,��
2018/10/17,23:10,0.785,1.184,0.832,1.486,1.069,0.460,0.807,0.768,�k��,5.3,��
2018/10/17,23:20,0.784,1.182,0.833,1.485,1.071,0.460,0.809,0.766,�k��,5.1,��
2018/10/17,23:30,0.786,1.181,0.832,1.484,1.069,0.461,0.808,0.765,�k��,5.2,��
2018/10/17,23:40,0.783,1.184,0.833,1.488,1.069,0.461,0.808,0.766,�k�k��,5.2,��
2018/10/17,23:50,0.784,1.185,0.831,1.489,1.067,0.460,0.810,0.766,�k��,5.6,��
